This demonstration page uses our WeatherBlox Daily Observations layout. Learn more.

Left ArrowRight Arrow

Hourly Observations for May 13, 2021

Temp ( °F °C ) Dew Point ( °F °C ) Humidity (%) Winds ( mph kmh ) Pressure ( in mb ) Visibility ( mi km ) Precip ( " mm )
12:53 am 00:53 Clear 48 8.9 46 7.8 93 93 Calm 30.26 1025 10 16 0.00 0.00
1:53 am 01:53 Mostly Clear 48 8.9 45 7.2 89 89 Calm 30.26 1025 10 16 0.00 0.00
2:53 am 02:53 Cloudy 47 8.3 44 6.7 90 90 Calm 30.24 1024 10 16 0.00 0.00
3:53 am 03:53 Cloudy 47 8.3 45 7.2 93 93 Calm 30.24 1024 10 16 0.00 0.00
4:53 am 04:53 Clear 46 7.8 45 7.2 96 96 Calm 30.24 1024 10 16 0.00 0.00
5:53 am 05:53 Clear 45 7.2 43 6.1 93 93 Calm 30.24 1024 10 16 0.00 0.00
6:53 am 06:53 Sunny 46 7.8 44 6.7 93 93 Calm 30.25 1024 10 16 0.00 0.00
7:53 am 07:53 Sunny 49 9.4 46 7.8 90 90 Calm 30.27 1025 10 16 0.00 0.00
8:53 am 08:53 Sunny 53 11.7 42 5.6 66 66 ENE 8 13 30.27 1025 10 16 0.00 0.00
9:53 am 09:53 Sunny 57 13.9 38 3.3 49 49 NE 6 9 30.28 1025 10 16 0.00 0.00
10:53 am 10:53 Sunny 60 15.6 30 -1.1 32 32 E 8 13 30.28 1025 10 16 0.00 0.00
11:53 am 11:53 Cloudy 64 17.8 32 0 30 30 E 10 17 30.27 1025 10 16 0.00 0.00
12:53 pm 12:53 Mostly Cloudy 65 18.3 33 0.6 31 31 ESE 6 9 30.25 1024 10 16 0.00 0.00
1:53 pm 13:53 Sunny 67 19.4 35 1.7 31 31 ENE 7 11 30.23 1024 10 16 0.00 0.00
2:53 pm 14:53 Sunny 68 20 36 2.2 31 31 NNE 7 11 30.21 1023 10 16 0.00 0.00
3:53 pm 15:53 Sunny 70 21.1 39 3.9 32 32 VRB 5 7 30.19 1022 10 16 0.00 0.00
4:53 pm 16:53 Mostly Sunny 70 21.1 35 1.7 28 28 VRB 5 7 30.18 1022 10 16 0.00 0.00
5:53 pm 17:53 Partly Cloudy 69 20.6 38 3.3 32 32 ENE 6 9 30.18 1022 10 16 0.00 0.00
6:53 pm 18:53 Sunny 67 19.4 35 1.7 31 31 NNE 5 7 30.18 1022 10 16 0.00 0.00
7:53 pm 19:53 Sunny 68 20 35 1.7 30 30 Calm 30.18 1022 10 16 0.00 0.00
8:53 pm 20:53 Mostly Cloudy 62 16.7 45 7.2 54 54 Calm 30.19 1022 10 16 0.00 0.00
9:53 pm 21:53 Cloudy 60 15.6 47 8.3 62 62 Calm 30.21 1023 10 16 0.00 0.00
10:53 pm 22:53 Cloudy 58 14.4 50 10 75 75 Calm 30.23 1024 10 16 0.00 0.00
11:53 pm 23:53 Cloudy 57 13.9 50 10 78 78 Calm 30.23 1024 10 16 0.00 0.00

Powered by AerisWeather